Location: Brunsbüttel
(52.3892°N, 10.6138°E)
Time: 00:12:57
(UTC+00:00)

Cosmos 158 Rocket - Pass Details

Date: 19 May 2025
Orbit: 695 x 787 km, 74.0° (Epoch: 23 June)

Event Time Altitude Azimuth Distance (km) Brightness Sun altitude
Rises 20:32:07 0° 203° (SSW) 3,235 7.0 -9.5°
Reaches altitude 10° 20:34:28 10° 203° (SSW) 2,322 6.2 -9.8°
Maximum altitude 20:39:46 90° 107° (ESE) 792 4.1 -10.3°
Drops below altitude 10° 20:45:11 10° 26° (NNE) 2,360 6.9 -10.7°
Sets 20:47:35 0° 26° (NNE) 3,292 7.7 -10.9°
